Weather Roundup
Issued by NWS Chicago, IL

Home | Current Version | Previous Version | Text Only | Print | Product List | Glossary Off
Versions: 1 2 3 4 5 6 7 8 9 10 11 12 13 14 15 16 17 18 19 20 21 22 23 24 25 26 27 28 29 30 31 32 33 34 35 36 37 38 39 40 41 42 43 44 45 46 47 48 49 50

000
NZUS59 KLOT 291203
HRRLOT

CHICAGO AREA WEATHER ROUNDUP
NATIONAL WEATHER SERVICE CHICAGO/ROMEOVILLE IL
700 AM CDT WED MAR 29 2017

NOTE: "FAIR" INDICATES FEW OR NO CLOUDS BELOW 12,000 FEET WITH NO
SIGNIFICANT WEATHER AND/OR OBSTRUCTIONS TO VISIBILITY.

* THESE STATIONS ARE NOT UNDER NWS QUALITY CONTROL. THEY ALSO MAY NOT
  REPORT WEATHER SUCH AS PRECIPITATION OR FOG.

ILZ005-006-012>014-019>023-291300-
NORTHEAST ILLINOIS

CITY           SKY/WX    TMP DP  RH WIND       PRES   REMARKS
OHARE          FOG       35  33  92 NE7       30.24R VSB 3/4 WCI  29
6HR MIN TEMP:  35; 6HR MAX TEMP:  36;

MIDWAY         CLOUDY    37  36  96 NE8       30.25R FOG
6HR MIN TEMP:  36; 6HR MAX TEMP:  37;

AURORA         CLOUDY    38  36  92 NE13      30.22S FOG
6HR MIN TEMP:  38; 6HR MAX TEMP:  42;

LANSING*       FOG       35  35 100 NE5       30.24R VSB 1/4 WCI  31
JOLIET*        CLOUDY    38  37  98 E7        30.23S FOG
WAUKEGAN       FOG       32  32 100 CALM      30.26R VSB 1/4
6HR MIN TEMP:  31; 6HR MAX TEMP:  34;

DUPAGE AIRPORT CLOUDY    35  35 100 NE9       30.22S FOG     WCI  28
6HR MIN TEMP:  35; 6HR MAX TEMP:  38;

WHEELING       FOG       33  33 100 NE6       30.26R VSB 3/4 WCI  28
6HR MIN TEMP:  32; 6HR MAX TEMP:  35;

MORRIS*        CLOUDY    37  36  94 CALM      30.22S FOG
NORTHERLY ISL    N/A     34  33  96 N6          N/A  WCI  29
$$

WIZ051-052-058>065-066-070>072-291300-
SOUTHEAST WISCONSIN

CITY           SKY/WX    TMP DP  RH WIND       PRES   REMARKS
MILWAUKEE      FOG       33  31  92 N3        30.27R VSB 1/4
6HR MIN TEMP:  32; 6HR MAX TEMP:  35;

KENOSHA*       FOG       31  30  96 NE5       30.26S VSB 1/4 WCI  26
RACINE*        FOG       31  30  96 N6        30.28R VSB 1/4 WCI  25
WAUKESHA       CLEAR     30  30 100 CALM      30.27S
WEST BEND      PTCLDY    30  30 100 CALM      30.28R
$$

INZ001>003-010>013-019-020-291300-
NORTHWEST INDIANA

CITY           SKY/WX    TMP DP  RH WIND       PRES   REMARKS
GARY*          FOG       36  36 100 NE5       30.25R VSB 1/4
MICHIGAN CITY* NOT AVBL
RENSSELAER*    NOT AVBL
VALPARAISO     CLEAR     35  34  96 NE3       30.24R FOG
$$

LMZ740>746-291300-
SOUTHERN LAKE MICHIGAN

STATION/POSITION TIME  SKY/WX   TEMP WIND        PRES    VSBY
                                AIR  DIR/SP/G
                 (UTC)          (F)  (DEG/KT/KT) (MB)    (MI)
HARRISON CRIB    1130            34   10/  5/  6   N/A
BURNHAM HARBOR   1200            35   20/  6/  9   N/A
CALUMET HARBOR   1130            34   20/  6/  9 1023.5R
BURNS HARBOR     1140            36   60/  7/  8 1024.4R
MICHIGAN CITY    1130            36   50/  4/  5   N/A
$$

ABBREVIATIONS USED IN REMARKS
   TC - TEMPERATURE IN CELSIUS
  WCI - WIND CHILL INDEX
   HX - HEAT INDEX
  VSB - VISIBILITY
$$



USA.gov is the U.S. government's official web portal to all federal, state and local government web resources and services.